Location: Pl�tzky
(52.0521°N, 11.8020°E)
Time: 14:39:12
(UTC+00:00)

CZ-4 R/B - Visible Passes

Search period start: 18 February 2020 00:00
Search period end: 28 February 2020 00:00
Orbit: 534 x 597 km, 97.7° (Epoch: 17 February)

Date Brightness Start Highest point End Pass type
(mag) Time Alt. Az. Time Alt. Az. Time Alt. Az.
18 Feb 5.0 05:14:17 10° ENE 05:15:54 12° E 05:17:29 10° ESE visible
18 Feb 2.0 17:39:26 10° S 17:43:37 64° WSW 17:47:48 10° NNW visible
19 Feb 5.0 05:14:42 10° ENE 05:16:19 12° E 05:17:56 10° ESE visible
19 Feb 2.0 17:39:52 10° S 17:44:03 64° WSW 17:48:14 10° NNW visible
20 Feb 5.0 05:15:07 10° ENE 05:16:46 12° E 05:18:22 10° ESE visible
20 Feb 2.0 17:40:19 10° S 17:44:29 63° WSW 17:48:39 10° NNW visible
21 Feb 5.0 05:15:32 10° ENE 05:17:11 12° E 05:18:49 10° ESE visible
21 Feb 2.0 17:40:46 10° S 17:44:55 62° WSW 17:49:05 10° NNW visible
22 Feb 5.0 05:15:57 10° ENE 05:17:37 12° E 05:19:16 10° ESE visible
22 Feb 2.1 17:41:12 10° S 17:45:21 62° WSW 17:49:30 10° NNW visible
23 Feb 5.0 05:16:22 10° ENE 05:18:03 12° E 05:19:43 10° ESE visible
23 Feb 2.1 17:41:38 10° S 17:45:48 61° WSW 17:49:55 10° NNW visible
24 Feb 5.0 05:16:46 10° ENE 05:18:29 12° E 05:20:10 10° ESE visible
24 Feb 2.1 17:42:05 10° S 17:46:14 61° WSW 17:50:21 10° NNW visible
25 Feb 5.0 05:17:11 10° ENE 05:18:55 12° E 05:20:36 10° ESE visible
25 Feb 2.1 17:42:31 10° S 17:46:40 60° W 17:50:46 10° NNW visible
26 Feb 5.0 05:17:36 10° ENE 05:19:20 12° E 05:21:03 10° ESE visible
26 Feb 2.1 17:42:58 10° S 17:47:05 59° WSW 17:51:11 10° NNW visible
27 Feb 5.0 05:18:01 10° ENE 05:19:45 13° E 05:21:30 10° ESE visible
27 Feb 2.2 17:43:24 10° S 17:47:32 59° W 17:51:36 10° NNW visible
